Regional Weather Roundup
Issued by NWS

Home | Current Version | Previous Version | Graphics & Text | Print | Product List | Glossary Off
Versions: 1 2 3 4 5 6 7 8 9 10 11 12 13 14 15 16 17 18 19 20 21 22 23 24 25 26 27 28 29 30 31 32 33 34 35 36 37 38 39 40 41 42 43 44 45 46 47 48 49 50

000
ASUS43 KLOT 132100
RWRIL

ILLINOIS REGIONAL WEATHER ROUNDUP
NATIONAL WEATHER SERVICE CHICAGO/ROMEOVILLE IL
400 PM CDT SUN JUL 13 2014

NOTE: "FAIR" INDICATES FEW OR NO CLOUDS BELOW 12,000 FEET WITH NO
SIGNIFICANT WEATHER AND/OR OBSTRUCTIONS TO VISIBILITY.

* THESE STATIONS ARE NOT UNDER NWS QUALITY CONTROL. THEY ALSO MAY NOT
  REPORT WEATHER SUCH AS PRECIPITATION OR FOG.

ILZ001-002-007-009-015-016-024-132200-
NORTHWEST ILLINOIS

CITY           SKY/WX    TMP DP  RH WIND       PRES   REMARKS
MOLINE         SUNNY     84  67  56 W8        29.93F HX  86
STERLING*      MOSUNNY   84  70  61 W13G20    29.92F HX  88
$$

ILZ003-004-008-010-011-017-018-132200-
NORTH CENTRAL ILLINOIS

CITY           SKY/WX    TMP DP  RH WIND       PRES   REMARKS
ROCKFORD       LGT RAIN  80  65  59 NW10      29.91F HX  82
FREEPORT*      PTSUNNY   79  67  67 W10G16    29.93F HX  81
$$

ILZ005-006-012>014-019>023-132200-
NORTHEAST ILLINOIS

CITY           SKY/WX    TMP DP  RH WIND       PRES   REMARKS
CHICAGO-OHARE  MOSUNNY   85  57  38 NW13      29.89F HX  84
CHICAGO-MIDWAY MOSUNNY   85  61  44 W14       29.90F HX  85
AURORA         SUNNY     83  65  54 W8        29.92F HX  85
WAUKEGAN       MOSUNNY   83  61  47 W9        29.87F HX  83
DUPAGE AIRPORT MOSUNNY   84  64  50 W10       29.91F HX  85
WHEELING       SUNNY     86  60  41 W10G16    29.90F HX  86
NORTHERLY ISL    N/A     75  67  76 S6          N/A
$$

LMZ740>746-132200-
SOUTHERN LAKE MICHIGAN

STATION/POSITION SKY/WX   TEMP    WIND        PRES    VSBY  WAVE
                          AIR SEA DIR/SP/G                  HT/PER
                          (F)     (DEG/KT/KT) (MB)    (MI)  (FT/S)
SOUTHERN BUOY              64 62  190/ 12/ 14 1012.1F         1
WAUKEGAN HARBOR            82     260/ 15/ 18 1012.5S
HARRISON CRIB              74     140/ 10/ 11   N/A
BURNHAM HARBOR             74      60/  4/ 10   N/A
CALUMET HARBOR             76      80/  7/  8 1013.5F
MICHIGAN CITY              76        CALM       N/A
$$

ILZ025>027-034>036-040-047-049-050-058-095>099-132200-
WEST-CENTRAL ILLINOIS

CITY           SKY/WX    TMP DP  RH WIND       PRES   REMARKS
QUINCY         SUNNY     84  68  58 NW7       29.96F HX  87
$$

ILZ028>032-037-038-041>044-048-051>054-059>061-132200-
CENTRAL ILLINOIS

CITY           SKY/WX    TMP DP  RH WIND       PRES   REMARKS
DECATUR        CLOUDY    84  70  62 VRB6      29.95F HX  88
PEORIA         PTSUNNY   84  71  65 SW10      29.95F HX  89
SPRINGFIELD    MOSUNNY   85  70  60 VRB3      29.96S HX  89
TAYLORVILLE    NOT AVBL
$$

ILZ033-039-045-046-055>057-062-063-132200-
EAST-CENTRAL ILLINOIS

CITY           SKY/WX    TMP DP  RH WIND       PRES   REMARKS
CHAMPAIGN      PTSUNNY   83  70  64 NW6       29.95F HX  87
MATTOON        CLOUDY    83  72  69 NW12      29.94F HX  88
$$

ILZ079-100>102-132200-
SOUTHWEST ILLINOIS

CITY           SKY/WX    TMP DP  RH WIND       PRES   REMARKS
ALTON          PTSUNNY   88  75  66 SW7       29.96F HX  97
CAHOKIA*       PTSUNNY   90  72  55 SW7       29.93F HX  97
$$

ILZ064>066-069>071-074>076-080>082-084>086-088>090-092>094-132200-
SOUTH-CENTRAL ILLINOIS

CITY           SKY/WX    TMP DP  RH WIND       PRES   REMARKS
CARBONDALE     PTSUNNY   87  73  62 S10G23    29.95F HX  94
MARION         PTSUNNY   88  75  66 W8        29.96F HX  97
MT. VERNON     MOSUNNY   91  72  52 SW9       29.95S HX  98
$$

ILZ067-068-072-073-078-083-087-091-132200-
SOUTHEAST ILLINOIS

CITY           SKY/WX    TMP DP  RH WIND       PRES   REMARKS
$$

ABBREVIATIONS USED IN REMARKS
   TC - TEMPERATURE IN CELSIUS
  WCI - WIND CHILL INDEX
   HX - HEAT INDEX
  VSB - VISIBILITY
$$



USA.gov is the U.S. government's official web portal to all federal, state and local government web resources and services.